Location: *
(50.3440°N, 18.6237°E)
Time: 14:12:27
(UTC+00:00)

Helios 1A Rocket - Pass Details

Date: 30 November 2020
Orbit: 564 x 585 km, 98.3° (Epoch: 27 January)

Event Time Altitude Azimuth Distance (km) Brightness Sun altitude
Exits shadow 15:55:07 14° 84° (E) 1,621 4.6 -10.6°
Maximum altitude 15:56:35 17° 59° (ENE) 1,489 4.4 -10.9°
Drops below altitude 10° 15:59:09 10° 19° (NNE) 1,872 5.2 -11.2°
Sets 16:01:55 0° 359° (N) 2,776 6.2 -11.7°
